Dubuque, IA

2:33 AM CST on December 08, 2019 (GMT -0600)
Dubuque Regional

Weather History for KDBQ - November, 2019

Change the Weather History Date:

Thursday, November 14, 2019

  Actual Average Record
Temperature  
Mean Temperature 21 °F 38 °F  
Max Temperature 28 °F 46 °F 70 °F (1971)
Min Temperature 14 °F 30 °F 5 °F (1916)
Degree Days  
Heating Degree Days 44 27  
Month to date heating degree days 544 336  
Since 1 July heating degree days 1177 985  
Cooling Degree Days 0 0  
Month to date cooling degree days 0 0  
Year to date cooling degree days 679 643  
Moisture  
Dew Point 19 °F    
Average Humidity 82    
Maximum Humidity 96    
Minimum Humidity 68    
Precipitation  
Precipitation T in 0.08 in 1.11 in (1956)
Month to date precipitation 0.56 1.13  
Year to date precipitation 51.89 33.23  
Snow  
Snow T in 0.10 in - ()
Month to date snowfall 4.9 0.5  
Since 1 July snowfall 14.1 0.5  
Since 1 September snowfall 14.1 0.5  
Snow Depth 3.00 in    
Sea Level Pressure  
Sea Level Pressure 30.22 in    
Wind  
Wind Speed 5 mph ()    
Max Wind Speed 16 mph    
Max Gust Speed 19 mph    
Visibility 7.4 miles    
Events      
T = Trace of Precipitation, MM = Missing Value Source: Averaged Metar Reports

Daily Weather History Graph

Daily Weather History Graph

Search for Another Location

Airport or City:

Astronomy

Nov. 14, 2019 Rise Set
Actual Time 6:52 AM CST 4:41 PM CST
Civil Twilight 6:22 AM CST 5:11 PM CST
Nautical Twilight 5:48 AM CST 5:45 PM CST
Astronomical Twilight 5:14 AM CST 6:19 PM CST
Moon 6:26 PM CST (11/14) 8:49 AM CST (11/14)
Length of Visible Light 10h 49m
Length of Day
9h 49m
Waning Gibbous, 95% of the Moon is Illuminated
Nov 14
Waning Gibbous
Nov 19
Last Quarter
Nov 26
New
Dec 4
First Quarter
Dec 11
Full

Hourly Weather History & Observations

Time (CST) Temp. Windchill Dew Point Humidity Pressure Visibility Wind Dir Wind Speed Gust Speed Precip Events Conditions
12:08 AM 23.0 °F - 21.0 °F 92% 30.05 in 6.0 mi Calm Calm - N/A   Overcast
12:51 AM 23.0 °F - 21.2 °F 93% 30.06 in 7.0 mi Calm Calm - N/A   Overcast
12:53 AM 24.1 °F - 21.0 °F 88% 30.11 in 7.0 mi Calm Calm - N/A   Overcast
1:36 AM 25.0 °F 17.1 °F 23.0 °F 92% 30.07 in 5.0 mi WNW 6.9 mph - N/A   Overcast
1:53 AM 25.0 °F 17.1 °F 23.0 °F 92% 30.12 in 6.0 mi WNW 6.9 mph - N/A   Overcast
2:38 AM 26.1 °F 17.6 °F 23.0 °F 88% 30.08 in 6.0 mi NW 8.1 mph - N/A   Overcast
2:53 AM 26.1 °F 17.6 °F 24.1 °F 92% 30.13 in 5.0 mi NNW 8.1 mph - N/A   Overcast
3:15 AM 26.1 °F 16.8 °F 24.1 °F 92% 30.09 in 2.5 mi NNW 9.2 mph - N/A   Overcast
3:39 AM 26.1 °F 15.6 °F 24.1 °F 92% 30.10 in 2.5 mi NNW 11.5 mph - N/A   Overcast
3:53 AM 26.1 °F 17.6 °F 24.1 °F 92% 30.15 in 3.0 mi North 8.1 mph - N/A   Overcast
4:09 AM 26.1 °F 17.6 °F 23.0 °F 88% 30.11 in 4.0 mi North 8.1 mph - N/A   Overcast
4:53 AM 26.1 °F 17.6 °F 23.0 °F 88% 30.17 in 6.0 mi North 8.1 mph - N/A   Overcast
5:46 AM 26.1 °F 19.4 °F 21.9 °F 84% 30.15 in 7.0 mi NNW 5.8 mph - N/A   Overcast
5:53 AM 26.1 °F 18.4 °F 21.9 °F 84% 30.20 in 7.0 mi North 6.9 mph - N/A   Overcast
6:10 AM 26.1 °F 16.8 °F 21.0 °F 81% 30.15 in 8.0 mi North 9.2 mph - N/A   Overcast
7:53 AM 25.0 °F 18.1 °F 18.0 °F 75% 30.26 in 10.0 mi North 5.8 mph - N/A   Overcast
8:53 AM 26.1 °F 19.4 °F 17.1 °F 69% 30.28 in 10.0 mi North 5.8 mph - N/A   Overcast
10:53 AM 26.1 °F 20.5 °F 18.0 °F 71% 30.30 in 10.0 mi North 4.6 mph - N/A   Overcast
11:53 AM 27.0 °F 18.7 °F 18.0 °F 69% 30.29 in 10.0 mi West 8.1 mph - N/A   Overcast
12:53 PM 27.0 °F 16.7 °F 18.0 °F 69% 30.29 in 8.0 mi WNW 11.5 mph - N/A   Overcast
1:53 PM 27.0 °F 17.3 °F 18.0 °F 69% 30.28 in 8.0 mi West 10.4 mph - N/A   Overcast
2:53 PM 27.0 °F 16.1 °F 18.0 °F 69% 30.31 in 8.0 mi West 12.7 mph - N/A   Overcast
3:44 PM 26.1 °F 15.0 °F 17.1 °F 69% 30.26 in 10.0 mi West 12.7 mph - N/A   Scattered Clouds
3:53 PM 26.1 °F 16.2 °F 17.1 °F 69% 30.31 in 10.0 mi West 10.4 mph - N/A   Partly Cloudy
4:53 PM 21.9 °F 12.5 °F 15.1 °F 75% 30.32 in 10.0 mi West 8.1 mph - N/A   Clear
5:53 PM 19.0 °F 13.9 °F 12.9 °F 77% 30.34 in 10.0 mi WSW 3.5 mph - N/A   Clear
6:53 PM 16.0 °F 8.8 °F 12.0 °F 84% 30.32 in 8.0 mi SW 4.6 mph - N/A   Clear
7:53 PM 15.1 °F 7.7 °F 10.9 °F 84% 30.32 in 7.0 mi SW 4.6 mph - N/A   Clear
8:53 PM 17.1 °F 5.0 °F 12.9 °F 84% 30.32 in 8.0 mi SW 10.4 mph - N/A   Clear
9:53 PM 16.0 °F 6.3 °F 12.0 °F 84% 30.35 in 9.0 mi WSW 6.9 mph - N/A   Clear
10:53 PM 17.1 °F 5.0 °F 12.9 °F 84% 30.33 in 9.0 mi SSW 10.4 mph - N/A   Clear
11:53 PM 17.1 °F 8.7 °F 12.9 °F 84% 30.33 in 9.0 mi SW 5.8 mph - N/A   Clear